Weather History for Worland, WY

Change the Weather History Date:

Friday, January 18, 2013

  Actual Average Record
Temperature  
Mean Temperature 14 °F 17 °F  
Max Temperature 29 °F 31 °F 52 °F (1981)
Min Temperature -1 °F 4 °F -38 °F (1984)
Degree Days  
Heating Degree Days 51 48  
Month to date heating degree days 973 874  
Since 1 July heating degree days 3715 4237  
Cooling Degree Days 0 0  
Month to date cooling degree days 0 0  
Year to date cooling degree days 0 0  
Moisture  
Dew Point 9 °F    
Average Humidity 79    
Maximum Humidity 95    
Minimum Humidity 62    
Precipitation  
Precipitation 0.00 in 0.01 in 0.10 in (1998)
Month to date precipitation 0.04 0.14  
Year to date precipitation 0.04 0.14  
Sea Level Pressure  
Sea Level Pressure 30.28 in    
Wind  
Wind Speed 3 mph (SSW)    
Max Wind Speed 12 mph    
Max Gust Speed 12 mph    
Visibility 10 miles    
Events      
T = Trace of Precipitation, MM = Missing Value Source: NWS Daily Summary

Daily Weather History Graph

Daily Weather History Graph

Search for Another Location

Airport:

Trip Planner

Search our weather history database for the weather conditions in past years. The results will help you decide how hot, cold, wet, or windy it might be!

Date:

Astronomy

Jan. 18, 2013 Rise Set
Actual Time 7:41 AM MST 5:03 PM MST
Civil Twilight 7:09 AM MST 5:35 PM MST
Nautical Twilight 6:34 AM MST 6:11 PM MST
Astronomical Twilight 5:59 AM MST 6:45 PM MST
Moon 11:04 AM MST (1/18) 12:13 AM MST (1/18)
Length of Visible Light 10h 26m
Length of Day
9h 22m
Waxing Crescent, 48% of the Moon is Illuminated
Jan 18
Waxing Crescent
Jan 18
First Quarter
Jan 26
Full
Feb 3
Last Quarter
Feb 10
New

Hourly Weather History & Observations

Time (MST) Temp. Windchill Dew Point Humidity Pressure Visibility Wind Dir Wind Speed Gust Speed Precip Events Conditions
12:53 AM 9.0 °F -2.2 °F 3.9 °F 80% 30.36 in 10.0 mi SSW 6.9 mph - N/A   Clear
1:53 AM 8.1 °F 1.4 °F 3.9 °F 83% 30.36 in 10.0 mi SSE 3.5 mph - N/A   Clear
2:53 AM 5.0 °F -4.1 °F 1.9 °F 87% 30.35 in 10.0 mi West 4.6 mph - N/A   Clear
3:53 AM 3.9 °F -5.3 °F 1.0 °F 88% 30.35 in 10.0 mi South 4.6 mph - N/A   Clear
5:53 AM 3.0 °F - -0.0 °F 87% 30.34 in 10.0 mi Calm Calm - N/A   Clear
6:53 AM 7.0 °F -1.7 °F 3.0 °F 84% 30.33 in 10.0 mi South 4.6 mph - N/A   Clear
7:53 AM 1.0 °F - -2.0 °F 87% 30.33 in 10.0 mi Calm Calm - N/A   Clear
8:53 AM 1.9 °F -9.2 °F -2.0 °F 83% 30.36 in 10.0 mi SSW 5.8 mph - N/A   Clear
9:53 AM 12.9 °F 5.2 °F 7.0 °F 77% 30.33 in 10.0 mi SW 4.6 mph - N/A   Clear
10:53 AM 16.0 °F - 9.0 °F 74% 30.32 in 10.0 mi Calm Calm - N/A   Clear
11:53 AM 19.0 °F - 10.9 °F 71% 30.28 in 10.0 mi Calm Calm - N/A   Clear
12:53 PM 24.1 °F - 14.0 °F 65% 30.22 in 10.0 mi Calm Calm - N/A   Clear
1:53 PM 25.0 °F - 17.1 °F 72% 30.19 in 10.0 mi Calm Calm - N/A   Clear
2:53 PM 26.1 °F - 16.0 °F 66% 30.20 in 10.0 mi Calm Calm - N/A   Clear
3:53 PM 24.1 °F 17.0 °F 17.1 °F 75% 30.20 in 10.0 mi WSW 5.8 mph - N/A   Clear
4:53 PM 21.0 °F 14.6 °F 14.0 °F 74% 30.21 in 10.0 mi ESE 4.6 mph - N/A   Clear
5:53 PM 21.0 °F - 14.0 °F 74% 30.22 in 10.0 mi Calm Calm - N/A   Clear
6:53 PM 19.0 °F - 12.9 °F 77% 30.21 in 10.0 mi Calm Calm - N/A   Clear
7:53 PM 21.9 °F - 16.0 °F 78% 30.22 in 10.0 mi Calm Calm - N/A   Clear
8:53 PM 18.0 °F 11.1 °F 14.0 °F 84% 30.24 in 10.0 mi SW 4.6 mph - N/A   Clear
9:53 PM 15.1 °F 9.4 °F 12.0 °F 88% 30.24 in 10.0 mi WSW 3.5 mph - N/A   Clear
10:53 PM 17.1 °F 8.7 °F 12.9 °F 84% 30.24 in 10.0 mi SSE 5.8 mph - N/A   Scattered Clouds
11:53 PM 16.0 °F 3.6 °F 10.9 °F 81% 30.25 in 10.0 mi South 10.4 mph - N/A   Clear